Home > Weather > Słupsk > Past weeks

Flag for Poland Past Weather in Słupsk, Poland — Yesterday and Last 2 Weeks

Now
64 °F

Partly sunny.


Feels Like: 64 °F
Forecast: 60 / 72 °F
Wind: 3 mph from South

Location: Leba

Current Time: Jul 30, 2016 at 9:37:27 AM

Latest Report: Jul 30, 2016 at 8:00 AM


Visibility: 13 mi

Pressure: 29.82 "Hg

Humidity: 91%

Dew Point: 62 °F

Location of SłupskLocation

Past Weather in Słupsk — Graph

°F

Słupsk Temperature Yesterday

Maximum temperature yesterday: 72 °F (at 10:00 AM)
Minimum temperature yesterday: 59 °F (at 2:00 AM)
Average temperature yesterday: 65 °F

High & Low Weather Summary for the Past Weeks

 TemperatureHumidityPressure
High73 °F (Jul 26, 12:00 PM)97% (Jul 20, 6:00 AM)30.17 "Hg (Jul 20, 6:00 AM)
Low50 °F (Jul 21, 3:00 AM)55% (Jul 16, 6:00 PM)29.79 "Hg (Jul 15, 8:00 AM)
Average64 °F82%30.05 "Hg
* Reported Jul 15 8:00 AM — Jul 30 8:00 AM, Słupsk, Weather by CustomWeather, © 2016

Note: Actual official high and low records may vary slightly from our data, if they occured in-between our weather recording intervals... More about our weather records

Advertising

Słupsk Weather History for the Previous 24 Hours

Scroll right to see more
 ConditionsComfort  
Time TempWeatherWind HumidityBarometerVisibility
8:00 AM
Sat, Jul 30
64 °FPartly sunny.3 mph91%29.82 "Hg12 mi
7:00 AM62 °FPartly sunny.1 mph94%29.82 "Hg12 mi
6:00 AM60 °FPartly sunny.2 mph97%29.82 "Hg12 mi
5:00 AM59 °FFog.2 mph96%29.81 "Hg7 mi
4:00 AM60 °FPassing clouds.2 mph96%29.82 "Hg9 mi
3:00 AM61 °FPassing clouds.3 mph97%29.82 "Hg9 mi
2:00 AM59 °FPassing clouds.2 mph97%29.83 "Hg7 mi
1:00 AM60 °FPassing clouds.1 mph97%29.83 "Hg6 mi
12:00 AM60 °FPassing clouds.3 mph97%29.83 "Hg6 mi
11:00 PM
Fri, Jul 29
60 °FPassing clouds.3 mph95%29.84 "Hg6 mi
10:00 PM61 °FFog.1 mph94%29.83 "Hg6 mi
9:00 PM63 °FPassing clouds.1 mph90%29.84 "Hg12 mi
8:00 PM67 °FScattered clouds.1 mph78%29.83 "Hg12 mi
7:00 PM70 °FPartly sunny.1 mph72%29.84 "Hg12 mi
6:00 PM67 °FPartly sunny.2 mph80%29.84 "Hg12 mi
5:00 PMN/APassing clouds.N/AN/AN/A1 mi
4:00 PM71 °FPartly sunny.2 mph75%29.84 "Hg12 mi
3:00 PM69 °FThunderstorms. Partly sunny.2 mph79%29.85 "Hg12 mi
2:00 PM66 °FThundershowers. Overcast.2 mph91%29.87 "Hg11 mi
1:00 PM66 °FThunderstorms. Overcast.2 mph93%29.87 "Hg4 mi
12:00 PM64 °FThunderstorms. Overcast.2 mph94%29.88 "Hg2 mi
11:00 AM64 °FThundershowers. Overcast.7 mph90%29.89 "Hg2 mi
10:00 AM72 °FOvercast.2 mph69%29.89 "Hg12 mi
9:00 AM71 °FPartly sunny.2 mph65%29.89 "Hg12 mi
Weather by CustomWeather, © 2016

See weather overviewHow to use our weather pages